GFSNGP_sfc_30mbdewp_096.txt.gz
Dewpoint
23 21 20 18 18 17 18 22 26 29 30 31 33 32 30 30 29 28 28 28 28 29 29 30 31 32 34 36 38 40 43 47 50 51 50 50 49 48 47 48 46 47 47 46
16 17 16 18 20 20 21 29 31 33 29 33 32 31 29 28 28 27 26 27 28 28 28 29 30 31 32 34 36 37 38 38 41 42 43 42 42 42 41 40 40 40 39 39
12 17 18 14 16 18 31 31 33 29 30 32 29 27 27 27 26 26 26 27 27 28 28 29 30 31 31 32 34 35 34 35 36 36 36 36 37 37 36 36 36 35 35 35
14 17 12 28 33 31 29 30 31 31 30 29 27 27 27 27 26 25 26 26 27 28 28 29 30 31 31 31 32 32 32 32 33 32 32 32 32 32 32 33 33 33 32 32
15 16 18 25 30 29 29 26 30 27 28 29 27 25 25 28 27 26 27 27 27 28 29 29 30 30 30 29 30 30 30 31 31 31 30 30 30 29 30 30 30 30 31 31
21 17 16 25 28 30 34 22 27 25 25 29 29 25 21 27 28 27 27 28 27 28 28 28 29 29 27 27 27 27 28 29 31 31 31 29 29 28 29 28 28 28 29 30
19 19 24 28 29 30 21 23 27 25 24 24 23 25 27 28 28 28 28 27 26 26 27 27 28 28 26 25 25 26 27 28 28 29 30 31 30 30 28 27 27 27 27 28
23 20 17 29 28 25 29 29 27 25 24 24 24 25 25 26 25 26 25 25 25 25 25 27 28 26 25 24 25 26 26 25 25 25 26 28 29 29 28 26 25 25 25 25
25 21 28 30 29 32 31 28 28 27 27 25 24 24 25 25 25 25 24 24 24 24 24 26 28 27 24 25 25 24 23 23 23 24 24 25 25 25 25 25 24 23 23 23
24 27 28 29 29 30 29 28 29 28 26 26 24 24 24 24 24 24 24 23 23 23 23 24 26 27 28 28 26 24 22 21 22 22 22 23 23 23 22 22 21 21 21 22
25 27 28 28 29 28 28 28 28 27 26 24 23 23 23 22 22 23 22 23 22 22 22 22 24 25 26 28 28 24 21 20 20 20 21 21 22 22 22 23 22 20 21 22
21 27 26 26 28 30 27 26 26 23 23 23 23 22 22 22 23 22 22 21 21 21 20 21 21 22 23 25 26 25 25 22 19 16 16 17 18 20 22 23 23 23 23 23
25 29 28 29 29 28 26 25 25 24 23 22 24 24 23 21 21 20 19 18 17 18 19 19 19 20 21 23 23 22 22 22 24 20 18 15 14 15 15 17 18 19 20 21
31 28 26 28 25 28 27 27 27 27 26 24 22 20 18 17 16 15 14 14 14 15 16 17 17 17 19 21 21 20 19 19 19 20 22 19 17 16 14 14 14 15 18 19
28 29 28 29 28 28 26 24 23 22 22 20 18 16 16 16 16 15 14 13 12 13 13 13 13 13 16 19 17 18 20 18 17 17 18 19 19 18 16 14 13 13 13 13
29 29 26 25 26 26 23 21 20 20 20 19 17 15 15 15 14 14 13 13 12 11 11 10 10 9 12 15 17 16 16 16 16 16 16 16 16 13 11 8 10 10 10 10
26 26 26 24 23 22 21 21 22 21 20 18 16 14 12 11 11 12 12 12 11 10 10 9 7 7 11 13 15 14 14 14 13 14 15 15 15 12 6 8 8 10 10 10
28 27 27 25 23 21 21 21 20 18 17 16 14 12 10 10 11 10 11 9 8 8 7 8 10 7 10 14 15 15 14 13 14 14 14 14 14 13 9 7 7 9 9 9
24 24 23 23 22 20 18 17 16 15 14 12 10 9 9 9 9 11 11 11 7 6 6 6 9 7 8 13 13 13 12 10 14 15 13 10 11 11 11 10 8 9 8 7
19 19 19 18 17 15 14 13 12 10 8 8 7 7 8 8 8 6 6 6 8 9 8 3 2 5 8 11 11 11 11 12 12 11 8 10 6 4 6 9 10 10 8 7
16 16 15 14 13 11 10 9 8 7 7 4 -1 -1 2 4 5 8 10 10 6 8 10 6 1 2 7 10 10 7 8 10 11 9 9 10 11 11 9 7 9 9 9 8
14 14 14 12 11 11 10 9 9 8 7 5 4 5 5 6 4 7 9 10 6 9 7 2 1 -1 4 10 9 7 8 7 7 8 7 7 8 9 9 9 9 9 7 6
16 14 12 11 9 9 9 7 5 4 8 10 11 10 10 11 11 8 8 9 10 10 7 1 -0 -1 -1 5 10 5 8 9 6 6 6 3 4 5 4 5 4 4 7 7
17 15 12 12 13 12 9 9 8 7 9 11 8 9 13 14 10 11 10 6 3 8 9 6 3 1 0 1 8 10 6 5 8 9 9 6 6 7 8 6 6 2 4 5
17 16 14 13 13 13 13 13 13 13 12 12 10 7 9 13 9 11 7 6 7 3 3 5 7 4 1 1 4 8 8 6 6 7 4 2 2 2 4 3 6 8 7 6
16 15 16 16 16 16 15 14 14 15 14 14 14 13 11 12 11 11 10 8 9 8 6 5 7 5 3 3 4 6 7 9 7 6 7 8 6 6 7 7 7 7 6 4
18 17 16 15 13 13 16 16 14 12 10 8 7 8 14 17 16 13 12 12 11 10 9 10 10 10 10 10 9 9 8 8 6 6 8 8 8 9 8 5 3 5 6 6

GFSNGP_sfc_30mbdewp_102.txt.gz
Dewpoint
20 20 21 20 20 19 17 15 15 13 14 18 31 29 28 28 28 26 25 25 26 26 27 27 28 29 30 31 33 35 35 35 35 37 42 49 52 55 54 54 53 52 50 48
17 20 21 16 13 15 16 17 17 18 18 30 30 28 26 26 26 24 24 24 25 25 26 26 27 27 28 29 31 33 34 34 34 33 34 36 40 42 42 41 41 41 40 40
11 11 11 7 13 18 18 24 19 18 22 29 26 24 24 24 24 23 24 25 25 25 26 26 27 28 27 28 29 30 31 32 33 33 31 32 33 35 35 35 35 34 34 34
13 12 3 7 29 29 27 27 29 31 30 29 25 25 25 24 23 23 24 24 25 26 26 26 27 26 27 27 27 27 28 30 31 32 32 31 31 30 31 31 31 31 31 32
10 10 7 15 25 25 25 22 27 28 26 25 24 23 23 26 25 24 24 25 25 27 26 26 25 26 26 25 25 25 25 27 28 30 30 30 29 29 29 28 29 29 30 30
14 10 11 21 26 29 30 20 26 26 28 25 26 22 20 25 25 25 25 25 25 26 26 25 25 25 23 23 23 23 24 25 27 27 27 27 28 27 28 28 28 28 28 29
12 14 16 24 27 31 21 19 25 25 26 29 21 23 23 25 24 24 24 25 25 25 25 26 25 24 22 21 21 23 25 25 25 26 26 27 26 27 27 27 26 26 26 27
18 15 14 26 27 22 25 26 25 24 24 22 22 22 22 22 22 22 22 23 23 23 23 25 26 23 22 21 23 23 23 23 23 24 24 25 25 25 26 26 25 25 25 25
22 20 26 27 26 29 29 26 25 24 24 23 21 21 21 20 21 21 21 22 23 22 22 23 24 25 22 22 21 21 21 22 23 23 23 23 23 23 23 24 24 24 24 24
24 24 25 27 27 27 27 26 26 26 24 22 20 21 20 20 21 20 21 20 21 20 20 20 22 23 24 25 20 19 19 20 20 22 22 22 22 23 22 22 22 23 24 24
23 25 25 26 26 26 25 25 24 24 23 22 21 20 20 19 19 20 19 20 19 19 19 19 20 20 22 23 24 18 16 18 18 19 21 22 23 24 23 25 25 23 24 24
19 26 24 24 26 26 24 23 23 21 21 21 21 20 18 18 18 18 18 18 18 17 18 18 18 19 20 21 22 21 17 14 16 17 17 18 18 18 22 24 23 24 24 24
24 26 25 26 26 25 23 23 23 22 21 20 20 19 19 18 18 18 16 16 16 15 15 16 16 17 18 21 19 19 18 16 15 15 15 15 15 14 15 17 20 20 20 20
26 26 24 26 23 24 24 25 23 22 21 20 20 19 17 15 12 13 14 14 13 12 12 13 14 14 16 19 18 17 18 18 17 15 15 14 15 14 14 13 13 13 16 17
28 27 25 26 26 26 25 23 21 20 19 19 18 17 15 13 13 13 12 11 10 9 9 11 13 13 13 17 15 15 17 17 17 16 14 13 13 12 12 11 10 10 10 10
25 26 25 24 24 24 22 21 20 19 18 17 16 15 14 12 12 11 10 9 8 7 6 9 11 11 12 13 13 13 14 15 15 13 12 8 7 10 11 10 9 8 7 7
24 23 25 23 22 22 22 21 20 19 19 17 16 12 10 9 10 9 8 7 6 5 6 7 8 10 12 13 13 12 13 14 14 14 11 7 8 9 9 9 8 8 7 6
28 26 25 24 23 21 21 22 21 20 18 17 12 10 9 8 8 8 6 3 4 2 0 2 9 10 11 13 12 12 14 14 13 12 12 10 8 9 9 9 9 8 7 5
27 25 25 24 23 21 21 19 17 16 14 11 9 9 9 8 9 9 6 5 4 5 5 2 7 10 11 12 12 12 11 11 11 11 10 10 9 8 6 7 7 7 7 6
20 20 20 19 18 17 15 14 13 11 8 7 8 8 8 5 5 6 4 6 7 7 7 4 4 9 11 9 8 10 10 10 11 10 9 8 6 7 7 8 8 7 6 5
16 15 14 13 11 10 10 9 9 8 6 6 7 7 8 6 5 7 10 7 5 9 9 2 -0 3 9 9 7 6 7 8 8 7 7 7 8 8 8 7 7 7 7 7
12 12 10 10 9 7 5 4 3 2 -0 -0 1 1 1 3 6 7 8 9 7 8 5 1 1 -1 -1 8 6 6 7 6 6 6 5 4 4 4 6 6 7 7 6 6
11 10 9 8 8 7 7 7 5 2 3 6 8 9 10 11 10 8 7 10 9 8 8 6 2 2 0 -1 5 6 5 6 4 5 5 4 3 3 3 5 4 3 4 5
11 11 9 9 8 6 2 4 6 8 10 9 9 8 11 11 10 11 11 9 7 3 3 3 4 4 4 2 1 1 2 5 5 4 4 4 3 2 1 1 5 4 3 2
12 11 10 10 7 7 6 7 8 10 10 10 11 10 7 10 11 10 10 7 5 6 6 5 6 5 4 3 3 3 2 1 1 2 3 3 5 4 3 1 0 2 2 2
13 12 11 12 12 13 12 12 11 13 13 12 13 12 11 11 11 11 11 12 11 11 11 10 9 8 8 7 7 7 7 6 6 6 5 4 4 3 2 3 2 1 3 4
15 14 14 15 16 17 16 14 13 14 13 12 6 6 7 7 10 12 12 11 10 8 7 6 6 7 7 7 7 7 7 7 7 7 6 6 5 4 4 3 3 4 3 3

GFSNGP_sfc_30mbdewp_105.txt.gz
Dewpoint
15 16 20 18 16 17 16 16 13 11 11 15 18 29 28 28 27 26 26 25 25 25 26 26 26 26 27 29 30 32 34 35 35 35 35 37 40 46 56 56 55 55 52 50
16 16 15 12 12 14 13 13 13 12 13 17 29 28 26 26 26 25 25 24 25 25 25 25 25 26 26 28 28 30 31 32 34 34 33 32 34 36 38 40 40 40 40 40
8 12 9 2 9 14 17 23 19 17 18 28 26 24 24 24 25 24 24 24 24 25 25 26 26 26 26 27 27 27 29 30 32 33 33 32 31 31 32 33 34 34 34 34
11 12 -3 7 28 28 27 26 26 27 31 28 24 24 24 25 24 23 23 24 24 25 25 25 26 25 26 26 26 25 26 27 28 30 31 32 31 30 30 31 31 31 31 32
9 9 7 17 24 25 24 24 26 26 25 24 24 24 22 25 25 24 24 25 25 26 26 25 25 25 24 24 25 24 24 25 26 27 28 29 30 29 29 29 29 29 30 30
14 8 6 19 24 27 29 20 25 26 25 24 25 22 19 24 24 24 25 25 24 25 26 24 25 24 22 22 22 23 24 25 26 26 26 26 27 27 29 27 27 27 27 28
14 13 14 23 26 30 19 18 24 25 27 28 22 22 23 24 23 24 24 24 25 24 23 24 25 23 22 21 21 23 25 25 25 26 26 27 27 28 28 27 26 25 24 25
16 14 12 25 23 21 24 25 24 24 24 22 22 22 22 22 22 22 22 22 23 23 23 24 24 23 21 21 23 23 24 24 24 25 26 26 26 27 27 27 26 26 25 24
21 20 25 27 25 27 28 25 24 23 24 22 21 20 21 21 21 21 21 22 22 21 21 22 23 23 21 21 21 21 22 23 24 24 25 25 26 25 25 27 26 26 25 24
24 24 24 26 26 27 26 25 25 25 24 22 20 21 20 21 20 20 21 20 19 19 19 19 20 22 22 22 19 20 21 21 22 23 23 24 24 25 25 25 25 25 24 24
23 25 25 25 25 25 25 25 24 24 23 22 21 20 20 19 19 19 19 18 18 17 17 18 18 19 21 20 16 11 15 18 19 20 21 21 23 24 24 25 24 23 24 24
20 26 23 23 25 26 23 23 23 21 21 21 20 18 18 17 18 18 17 17 16 17 17 18 18 18 20 20 18 15 13 14 17 17 18 18 19 19 22 22 22 22 21 22
24 26 25 25 25 25 23 23 23 21 20 19 20 19 18 18 18 17 15 15 15 14 15 15 16 17 19 20 20 19 17 16 15 16 16 17 17 17 16 15 17 17 17 18
25 25 23 25 22 24 24 24 22 21 20 20 19 18 15 13 13 13 12 12 12 13 13 14 14 15 17 18 18 20 18 17 16 16 15 15 15 14 13 12 11 12 13 15
27 27 25 24 24 24 23 21 19 19 19 18 18 15 11 10 11 11 11 10 9 11 12 13 13 13 14 17 16 17 17 17 16 15 12 13 13 13 12 11 10 9 9 10
25 25 25 23 23 23 22 21 19 19 18 17 16 13 12 10 9 8 8 7 7 7 9 11 12 12 14 15 16 15 16 16 15 14 12 12 12 11 11 10 9 8 8 8
23 23 24 23 22 22 21 21 19 18 18 17 13 8 8 8 8 8 7 6 4 3 5 8 10 11 13 13 16 15 15 15 15 15 12 12 12 11 11 10 9 8 8 8
26 25 25 23 23 22 21 21 20 19 18 16 13 10 8 9 9 7 5 4 5 6 6 4 11 12 12 14 14 14 14 14 14 14 14 13 11 11 11 10 10 9 8 7
28 26 26 24 23 21 21 20 18 17 15 11 9 9 9 9 9 7 5 6 7 9 8 6 10 12 11 12 11 12 13 13 12 12 11 11 12 11 11 12 11 11 10 8
22 22 21 20 20 19 17 16 14 11 9 9 9 10 9 7 6 5 6 8 7 9 9 5 6 10 11 9 8 9 10 10 10 10 11 11 11 12 11 10 10 11 11 10
18 17 16 15 13 12 12 11 10 8 7 8 9 7 8 7 6 8 11 8 8 10 8 2 2 1 7 9 8 10 10 10 9 9 9 8 8 8 8 9 10 10 10 10
14 13 11 10 11 9 8 8 7 5 5 5 5 5 4 7 8 9 9 10 9 7 7 4 4 2 2 8 9 10 10 9 8 9 9 9 8 8 7 7 8 9 9 10
12 11 10 9 8 6 5 4 1 -0 1 3 4 6 10 11 10 10 9 10 10 8 9 9 6 4 3 7 7 8 9 9 9 9 9 9 9 9 8 8 7 8 8 9
11 11 9 9 9 8 6 5 5 8 10 10 10 9 12 13 13 13 12 10 8 7 8 8 7 4 3 8 8 8 8 9 8 8 8 6 9 9 8 8 8 8 8 7
12 11 9 8 4 4 4 7 9 9 10 10 11 9 8 11 13 13 14 12 8 9 12 8 7 6 10 10 10 9 9 9 9 8 8 8 8 8 8 9 8 8 8 7
12 9 8 9 7 8 8 10 11 13 13 13 14 12 12 12 13 13 14 12 12 10 11 10 8 9 9 8 8 8 8 8 8 8 8 8 8 7 7 7 7 6 7 7
13 12 14 15 16 15 14 13 15 15 14 12 9 9 10 10 11 12 10 10 9 6 5 5 5 4 4 4 5 6 6 6 6 5 6 5 5 6 6 6 7 8 7 6

GFSNGP_sfc_30mbdewp_108.txt.gz
Dewpoint
8 7 11 7 8 11 10 12 10 9 10 13 13 14 29 29 28 27 27 26 26 25 26 26 26 27 27 27 28 29 30 31 33 35 35 35 37 38 42 48 55 57 57 56
11 11 10 7 7 7 8 9 9 8 9 10 18 28 28 27 27 26 26 26 26 25 26 26 26 27 27 27 27 28 28 29 31 33 34 33 33 34 34 36 38 40 41 42
5 6 6 3 5 5 5 10 12 16 19 22 27 26 26 26 25 24 25 26 26 26 26 27 26 27 27 27 28 27 27 27 29 31 32 32 32 31 32 32 33 33 34 34
6 13 1 20 22 23 21 24 28 26 26 29 29 26 25 26 25 24 25 25 26 26 26 27 27 26 27 28 27 26 26 27 27 28 29 30 31 30 29 29 30 31 31 32
9 5 5 14 25 24 24 24 27 27 28 26 25 24 23 26 26 25 25 26 26 27 27 27 26 27 27 26 26 26 26 26 28 28 27 28 27 28 29 28 26 26 28 30
13 9 6 23 25 26 29 19 26 28 25 25 27 24 21 25 26 25 26 26 25 26 26 25 26 27 25 24 24 25 26 27 29 29 28 28 28 27 28 27 26 25 25 26
14 14 16 24 27 29 18 19 24 26 29 27 24 25 24 26 25 26 26 26 27 26 24 24 26 25 24 23 24 26 28 28 28 29 29 29 30 30 29 28 27 26 24 24
19 16 14 25 25 22 24 25 25 26 28 24 23 23 24 24 24 24 24 25 25 22 23 24 24 23 22 23 25 26 27 26 27 28 29 30 29 30 30 29 27 27 26 25
23 22 26 27 26 28 29 26 25 24 25 24 22 22 23 23 23 24 24 21 19 18 19 20 22 22 21 19 24 25 25 25 25 26 27 27 27 27 27 28 27 27 26 25
23 25 25 26 27 27 27 26 26 26 24 24 22 23 22 23 23 22 19 17 16 16 16 16 17 19 18 14 17 22 22 23 24 24 23 24 24 24 24 25 24 24 24 24
23 25 25 25 26 26 26 26 25 25 25 23 23 22 22 21 21 19 17 16 16 15 15 15 16 17 18 15 13 11 13 15 18 19 20 20 21 22 22 23 22 23 23 22
22 26 24 24 26 27 25 24 24 23 22 24 23 21 20 20 19 17 17 16 16 15 15 16 17 19 19 19 18 17 16 16 17 17 17 18 18 17 17 18 18 18 19 20
25 26 25 25 25 26 24 24 24 23 22 21 23 21 20 19 17 16 15 14 13 13 13 13 15 17 19 20 20 19 19 19 18 18 18 18 17 17 16 17 15 15 16 16
25 25 23 25 22 25 23 23 22 21 21 21 20 19 18 15 12 11 12 13 12 12 12 12 13 16 18 18 19 19 18 17 16 16 16 16 15 15 14 13 13 13 12 13
27 27 24 24 23 22 22 21 21 20 20 19 16 12 11 12 12 12 10 10 10 11 12 13 14 15 17 17 17 18 16 17 17 16 15 15 15 14 13 13 12 11 10 10
25 24 24 23 22 22 21 21 20 20 20 19 16 12 10 8 8 6 5 6 5 8 11 13 14 15 17 18 16 15 16 16 15 15 14 14 13 12 12 12 11 11 10 9
23 23 23 22 22 21 21 20 19 19 19 16 10 7 5 4 4 6 8 7 9 10 9 11 13 14 16 17 15 14 14 14 14 13 13 12 12 12 11 11 10 10 9 9
26 25 24 23 23 22 22 21 20 19 18 14 11 11 11 10 9 9 9 10 11 10 9 10 13 14 14 14 13 12 12 11 11 11 11 12 11 10 11 11 9 9 10 9
27 27 26 24 23 22 21 21 20 20 17 13 12 12 12 11 9 9 10 11 11 11 10 8 11 11 11 11 9 9 10 11 9 8 10 10 11 10 11 11 11 11 10 9
27 27 25 24 23 22 21 19 18 16 14 13 13 13 12 11 10 10 11 10 11 11 10 7 6 7 8 7 8 7 10 10 8 8 9 9 10 10 10 10 10 10 11 11
23 22 21 19 18 18 18 16 14 12 13 13 13 12 12 11 11 12 12 9 10 11 7 6 5 3 4 7 5 10 10 9 8 8 9 9 9 8 8 8 8 8 9 9
20 18 16 15 16 15 15 15 12 11 11 11 11 10 11 12 12 12 12 10 8 9 8 7 7 6 6 7 8 10 9 8 8 8 8 8 8 8 7 7 7 7 7 8
17 16 15 14 14 13 11 9 9 9 10 10 9 12 12 11 11 11 10 10 9 10 9 11 9 9 9 12 13 12 12 11 11 10 10 11 10 10 9 7 7 7 7 7
16 15 14 12 10 6 3 4 6 10 12 13 13 14 13 15 15 12 12 11 11 12 13 14 13 11 9 13 12 11 11 11 11 11 11 11 10 11 11 10 10 9 8 8
15 13 11 9 5 4 4 8 10 11 11 10 10 11 12 12 16 17 17 16 13 14 16 11 10 11 12 11 10 9 9 8 9 7 8 9 9 10 10 10 9 9 9 10
13 10 6 3 3 3 6 7 8 11 13 16 16 17 17 16 16 15 15 15 14 13 12 12 10 9 9 8 7 7 6 6 6 6 6 7 7 7 8 8 8 9 9 8
10 8 7 7 9 12 13 15 17 17 17 17 14 14 14 15 15 13 13 12 11 10 9 9 8 6 4 4 4 4 3 3 3 2 2 2 2 3 3 3 4 5 6 6

GFSNGP_sfc_30mbdewp_111.txt.gz
Dewpoint
9 6 4 8 9 10 9 12 11 8 9 10 10 12 21 27 26 26 27 27 27 27 27 28 28 28 28 28 28 29 28 29 30 32 33 34 35 36 37 39 40 43 51 54
11 9 7 6 6 3 3 6 6 4 6 10 12 23 26 27 27 27 26 26 26 27 29 28 28 27 28 29 29 29 28 28 29 30 31 32 33 32 32 33 34 35 35 37
9 4 5 2 3 2 2 2 4 8 11 23 25 32 27 26 26 25 25 26 26 27 28 28 28 29 28 30 30 29 29 29 29 29 29 29 31 31 30 30 30 32 33 33
8 10 2 13 20 20 17 15 16 23 25 28 31 28 26 27 26 25 25 26 26 27 27 28 29 29 29 30 30 29 29 29 29 29 29 28 27 28 28 28 28 28 29 31
8 5 5 14 26 25 24 19 28 27 27 28 26 26 24 25 26 26 26 26 26 27 28 28 28 29 28 28 28 28 28 29 30 30 29 28 27 27 27 26 26 26 26 27
11 7 6 25 25 24 27 18 26 25 26 26 28 26 23 26 27 27 27 27 26 27 27 26 27 28 26 26 26 27 28 29 30 31 30 30 30 29 29 28 26 26 25 26
12 14 22 24 27 29 19 20 25 25 30 27 27 25 25 26 26 27 27 28 29 26 24 25 26 25 25 26 26 28 28 29 29 30 30 30 30 31 31 30 29 28 26 26
18 20 17 25 26 22 26 27 26 29 30 25 24 25 25 25 26 26 27 27 22 20 22 24 24 23 21 24 27 27 27 26 27 28 28 28 28 30 29 30 28 27 27 26
23 22 26 26 27 29 30 27 26 26 27 26 24 24 25 24 25 25 24 17 15 15 16 18 18 18 19 22 24 26 26 25 25 24 25 26 25 25 25 25 24 25 25 24
23 25 26 26 27 28 28 27 27 28 26 26 24 24 24 25 25 23 17 14 14 14 14 16 16 16 17 16 16 19 20 22 23 23 22 21 22 22 21 22 23 21 21 22
23 25 26 25 26 27 27 27 26 27 26 25 24 24 24 24 23 18 16 15 14 14 14 15 16 17 17 17 18 16 16 17 18 19 19 20 19 19 19 20 19 20 22 20
25 26 26 25 27 28 26 25 25 24 24 26 25 23 24 22 19 18 16 15 13 12 12 14 17 18 19 19 19 19 19 19 20 19 19 18 19 21 18 16 16 17 17 19
26 28 27 26 28 28 26 26 26 25 24 24 24 24 22 19 18 16 14 12 11 10 10 11 14 17 18 21 22 21 20 22 20 21 21 20 19 18 18 19 17 14 14 15
25 25 24 24 23 24 24 24 23 22 22 22 21 20 17 13 11 11 11 10 10 10 10 11 13 17 19 18 18 20 19 19 18 18 18 17 17 16 16 15 15 15 14 12
27 27 25 24 23 23 22 21 21 20 20 19 17 17 14 12 11 10 9 8 7 9 10 11 13 16 18 19 18 19 16 18 18 18 17 16 16 15 15 14 14 13 12 11
25 24 24 23 22 21 21 21 21 20 20 17 14 13 12 10 7 5 6 8 7 10 12 14 13 16 17 19 17 17 17 15 15 16 15 15 14 13 13 13 13 12 12 8
24 23 23 22 22 22 21 22 21 21 20 17 12 8 5 3 3 7 9 11 13 12 12 13 14 15 16 16 16 14 14 13 13 13 13 13 12 12 12 12 11 11 12 11
26 25 24 23 22 22 22 21 21 20 18 13 12 12 12 12 11 11 11 13 13 12 11 13 13 14 13 13 12 11 12 12 10 10 11 12 12 10 12 12 11 11 11 11
29 25 25 24 23 22 22 21 22 22 17 15 14 13 12 12 12 12 13 14 14 13 11 11 10 11 9 9 10 11 11 12 9 9 10 10 11 11 11 11 10 10 11 12
31 28 26 25 24 24 24 23 21 18 15 15 15 14 13 12 12 14 13 12 12 11 10 9 6 5 6 6 8 10 11 11 9 9 10 10 11 11 11 9 9 10 12 13
27 26 25 24 23 22 21 20 18 15 15 15 15 14 13 13 14 15 16 12 12 10 7 8 6 5 5 7 7 12 11 11 10 10 10 11 11 10 10 10 10 10 10 10
23 22 21 20 19 19 19 18 16 15 15 15 15 14 14 13 14 12 13 12 9 10 10 9 9 9 9 10 11 12 11 11 10 11 11 11 12 11 11 10 11 11 12 9
21 20 19 18 18 18 18 15 13 13 13 13 13 15 15 13 12 13 13 10 11 10 10 17 12 12 12 13 14 13 12 11 12 11 11 12 11 11 12 11 11 10 10 11
20 19 19 19 17 14 11 8 9 13 14 14 16 17 15 16 16 13 13 12 12 13 14 15 14 12 12 15 13 12 10 10 12 11 8 9 11 9 9 10 9 10 13 14
19 18 16 14 9 6 4 7 10 11 12 11 12 13 13 14 18 19 18 19 15 15 18 12 12 10 12 10 10 8 9 8 10 7 10 7 7 9 6 7 10 10 8 9
16 15 13 9 6 4 7 8 9 12 13 17 17 19 19 16 15 16 16 14 14 13 13 13 10 7 8 7 6 6 5 4 5 4 3 2 4 4 5 5 4 5 7 7
15 11 7 6 6 9 11 14 15 15 18 19 16 16 17 15 14 13 13 13 12 10 10 8 8 6 5 3 3 2 2 1 1 -0 -0 0 0 1 1 1 1 2 3 3